Zurück zum Katalog

ATLAS D R/B

AktivLEO
NORAD 1616·ROCKET BODY·🇺🇸 United States

Gestartet Oct 5, 1965 von Vandenberg Space Force Base

Loading…

Nächste Überflüge (nächste 24 Stunden)

TLE

AktuellSource: Space-Track

Epoche: Sep 14, 2026, 13:43 UTC

1 01616U 65078B   26257.57206019  .00005045  00000-0  40590-3 0  9997
2 01616 144.2320 323.4586 0962565  32.1183 333.4746 13.38658461762699

Verfolge ATLAS D R/B in Echtzeit mit AllMySat

Download on the App Store